Archiv-/Tagesdaten

--Timestamp---	Temp	Chill	HIndex	Humid	Dewpt	 Wind 	HiWind	WindDir	Rain 	Barom	Solar	 ET  	 UV 
--------------	----	-----	------	-----	-----	------	------	-------	-----	-----	-----	-----	----
20100822 00:00	18.9	18.9	18.9	85	16.4	0	3	45	0.0	1021.5	0	0.025	0.0
20100822 00:05	18.8	18.8	18.8	85	16.3	0	3	45	0.0	1021.2	0	0.000	0.0
20100822 00:10	18.8	18.8	18.8	86	16.4	0	2	45	0.0	1021.2	0	0.000	0.0
20100822 00:15	18.7	18.7	18.7	86	16.3	0	0	-100000	0.0	1021.2	0	0.000	0.0
20100822 00:20	18.6	18.6	18.6	86	16.2	0	3	45	0.0	1021.2	0	0.000	0.0
20100822 00:25	18.6	18.6	18.6	86	16.2	0	3	45	0.0	1021.2	0	0.000	0.0
20100822 00:30	18.6	18.6	18.6	87	16.3	2	8	45	0.0	1021.3	0	0.000	0.0
20100822 00:35	18.6	18.6	18.6	87	16.3	3	8	90	0.0	1021.2	0	0.000	0.0
20100822 00:40	18.5	18.5	18.5	87	16.3	3	6	90	0.0	1021.2	0	0.000	0.0
20100822 00:45	18.5	18.5	18.5	87	16.3	3	6	90	0.0	1021.2	0	0.000	0.0
20100822 00:50	18.4	18.4	18.4	87	16.2	2	5	90	0.0	1021.2	0	0.000	0.0
20100822 00:55	18.4	18.4	18.4	87	16.2	0	5	90	0.0	1021.3	0	0.000	0.0
20100822 01:00	18.3	18.3	18.3	87	16.1	2	5	90	0.0	1021.1	0	0.025	0.0
20100822 01:05	18.3	18.3	18.3	87	16.1	0	5	90	0.0	1021.0	0	0.000	0.0
20100822 01:10	18.3	18.3	18.3	87	16.1	2	5	90	0.0	1021.0	0	0.000	0.0
20100822 01:15	18.2	18.2	18.2	87	16.0	2	5	90	0.0	1020.9	0	0.000	0.0
20100822 01:20	18.2	18.2	18.2	87	16.0	0	5	90	0.0	1020.9	0	0.000	0.0
20100822 01:25	18.1	18.1	18.1	87	15.9	2	5	90	0.0	1020.9	0	0.000	0.0
20100822 01:30	18.1	18.1	18.1	87	15.9	0	3	90	0.0	1020.9	0	0.000	0.0
20100822 01:35	18.0	18.0	18.0	87	15.8	0	3	90	0.0	1020.9	0	0.000	0.0
20100822 01:40	17.9	17.9	17.9	87	15.7	0	5	90	0.0	1021.0	0	0.000	0.0
20100822 01:45	17.9	17.9	17.9	87	15.7	0	3	90	0.0	1021.0	0	0.000	0.0
20100822 01:50	17.9	17.9	17.9	87	15.7	0	5	90	0.0	1020.9	0	0.000	0.0
20100822 01:55	17.9	17.9	17.9	87	15.7	0	3	90	0.0	1020.9	0	0.000	0.0
20100822 02:00	17.8	17.8	17.8	87	15.6	0	5	90	0.0	1020.9	0	0.000	0.0
20100822 02:05	17.8	17.8	17.8	88	15.8	2	6	90	0.0	1020.8	0	0.000	0.0
20100822 02:10	17.8	17.8	17.8	88	15.8	3	6	90	0.0	1020.7	0	0.000	0.0
20100822 02:15	17.8	17.8	17.8	88	15.8	2	5	90	0.0	1020.7	0	0.000	0.0
20100822 02:20	17.7	17.7	17.7	88	15.7	0	5	90	0.0	1020.6	0	0.000	0.0
20100822 02:25	17.7	17.7	17.7	88	15.7	0	3	90	0.0	1020.6	0	0.000	0.0
20100822 02:30	17.7	17.7	17.7	88	15.7	0	3	90	0.0	1020.6	0	0.000	0.0
20100822 02:35	17.7	17.7	17.7	89	15.8	2	6	90	0.0	1020.6	0	0.000	0.0
20100822 02:40	17.7	17.7	17.7	89	15.8	2	5	90	0.0	1020.5	0	0.000	0.0
20100822 02:45	17.6	17.6	17.6	89	15.8	3	6	90	0.0	1020.4	0	0.000	0.0
20100822 02:50	17.6	17.6	17.6	89	15.8	2	6	90	0.0	1020.4	0	0.000	0.0
20100822 02:55	17.6	17.6	17.6	89	15.7	2	3	90	0.0	1020.4	0	0.000	0.0
20100822 03:00	17.5	17.5	17.5	89	15.7	0	2	90	0.0	1020.4	0	0.000	0.0
20100822 03:05	17.5	17.5	17.5	89	15.7	0	3	90	0.0	1020.4	0	0.000	0.0
20100822 03:10	17.4	17.4	17.4	89	15.6	0	5	90	0.0	1020.4	0	0.000	0.0
20100822 03:15	17.4	17.4	17.4	89	15.6	0	2	90	0.0	1020.3	0	0.000	0.0
20100822 03:20	17.4	17.4	17.4	89	15.6	0	2	90	0.0	1020.3	0	0.000	0.0
20100822 03:25	17.3	17.3	17.3	89	15.5	0	2	90	0.0	1020.3	0	0.000	0.0
20100822 03:30	17.3	17.3	17.3	89	15.5	0	2	90	0.0	1020.3	0	0.000	0.0
20100822 03:35	17.3	17.3	17.3	89	15.4	0	3	90	0.0	1020.2	0	0.000	0.0
20100822 03:40	17.2	17.2	17.2	89	15.4	0	3	90	0.0	1020.2	0	0.000	0.0
20100822 03:45	17.2	17.2	17.2	89	15.3	0	2	90	0.0	1020.2	0	0.000	0.0
20100822 03:50	17.2	17.2	17.2	90	15.5	0	3	90	0.0	1020.1	0	0.000	0.0
20100822 03:55	17.1	17.1	17.1	90	15.5	0	3	90	0.0	1020.2	0	0.000	0.0
20100822 04:00	17.1	17.1	17.1	90	15.4	0	2	90	0.0	1020.1	0	0.000	0.0
20100822 04:05	17.0	17.0	17.0	90	15.3	0	3	90	0.0	1020.1	0	0.000	0.0
20100822 04:10	17.0	17.0	17.0	90	15.3	2	5	90	0.0	1020.1	0	0.000	0.0
20100822 04:15	16.9	16.9	16.9	90	15.3	0	3	90	0.0	1020.0	0	0.000	0.0
20100822 04:20	16.9	16.9	16.9	90	15.2	0	3	90	0.0	1020.2	0	0.000	0.0
20100822 04:25	16.8	16.8	16.8	90	15.2	2	5	90	0.0	1020.2	0	0.000	0.0
20100822 04:30	16.8	16.8	16.8	90	15.2	2	5	90	0.0	1020.1	0	0.000	0.0
20100822 04:35	16.8	16.8	16.8	90	15.1	2	5	90	0.0	1020.0	0	0.000	0.0
20100822 04:40	16.8	16.8	16.8	90	15.1	2	5	90	0.0	1019.9	0	0.000	0.0
20100822 04:45	16.7	16.7	16.7	90	15.1	0	3	90	0.0	1019.9	0	0.000	0.0
20100822 04:50	16.7	16.7	16.7	90	15.1	0	2	90	0.0	1019.8	0	0.000	0.0
20100822 04:55	16.7	16.7	16.7	91	15.2	0	2	90	0.0	1019.8	0	0.000	0.0
20100822 05:00	16.7	16.7	16.7	90	15.0	0	2	90	0.0	1019.7	0	0.000	0.0
20100822 05:05	16.6	16.6	16.6	90	15.0	0	3	90	0.0	1019.6	0	0.000	0.0
20100822 05:10	16.6	16.6	16.6	90	14.9	0	3	90	0.0	1019.6	0	0.000	0.0
20100822 05:15	16.6	16.6	16.6	90	14.9	0	5	90	0.0	1019.7	0	0.000	0.0
20100822 05:20	16.5	16.5	16.5	91	15.0	2	3	90	0.0	1019.5	0	0.000	0.0
20100822 05:25	16.4	16.4	16.4	91	15.0	0	5	90	0.0	1019.6	0	0.000	0.0
20100822 05:30	16.4	16.4	16.4	91	15.0	0	2	90	0.0	1019.6	0	0.000	0.0
20100822 05:35	16.4	16.4	16.4	91	14.9	0	2	90	0.0	1019.6	0	0.000	0.0
20100822 05:40	16.3	16.3	16.3	91	14.9	0	2	90	0.0	1019.5	0	0.000	0.0
20100822 05:45	16.3	16.3	16.3	91	14.9	0	2	90	0.0	1019.6	0	0.000	0.0
20100822 05:50	16.3	16.3	16.3	91	14.8	0	5	90	0.0	1019.6	0	0.000	0.0
20100822 05:55	16.2	16.2	16.2	91	14.7	0	2	90	0.0	1019.6	0	0.000	0.0
20100822 06:00	16.2	16.2	16.2	91	14.7	0	2	90	0.0	1019.6	0	0.000	0.0
20100822 06:05	16.2	16.2	16.2	91	14.7	0	5	90	0.0	1019.8	0	0.000	0.0
20100822 06:10	16.2	16.2	16.2	91	14.7	0	3	90	0.0	1019.8	0	0.000	0.0
20100822 06:15	16.2	16.2	16.2	91	14.7	3	8	90	0.0	1019.8	0	0.000	0.0
20100822 06:20	16.2	16.2	16.2	91	14.7	3	6	90	0.0	1019.8	0	0.000	0.0
20100822 06:25	16.2	16.2	16.2	91	14.7	0	3	90	0.0	1019.8	3	0.000	0.0
20100822 06:30	16.2	16.2	16.2	91	14.7	2	6	90	0.0	1019.8	6	0.000	0.0
20100822 06:35	16.1	16.1	16.1	91	14.6	2	5	90	0.0	1019.9	10	0.000	0.0
20100822 06:40	16.1	16.1	16.1	91	14.6	3	5	90	0.0	1019.9	12	0.000	0.0
20100822 06:45	16.1	16.1	16.1	91	14.6	5	8	90	0.0	1019.8	15	0.000	0.0
20100822 06:50	16.1	16.1	16.1	91	14.6	5	8	90	0.0	1019.8	17	0.000	0.0
20100822 06:55	16.1	16.1	16.1	91	14.6	5	8	90	0.0	1019.8	19	0.000	0.0
20100822 07:00	16.1	16.1	16.1	91	14.6	5	8	112	0.0	1019.8	21	0.000	0.0
20100822 07:05	16.2	16.2	16.2	91	14.7	3	6	112	0.0	1020.0	24	0.000	0.0
20100822 07:10	16.2	16.2	16.2	91	14.7	3	6	135	0.0	1019.9	26	0.000	0.0
20100822 07:15	16.3	16.3	16.3	91	14.9	3	8	135	0.0	1019.9	27	0.000	0.0
20100822 07:20	16.4	16.4	16.4	91	15.0	3	6	135	0.0	1019.8	29	0.000	0.0
20100822 07:25	16.5	16.5	16.5	91	15.0	3	8	135	0.0	1019.8	31	0.000	0.0
20100822 07:30	16.7	16.7	16.7	91	15.2	3	8	135	0.0	1019.8	32	0.000	0.0
20100822 07:35	16.8	16.8	16.8	91	15.3	2	6	135	0.0	1019.7	34	0.000	0.0
20100822 07:40	16.9	16.9	16.9	91	15.5	3	8	135	0.0	1019.7	111	0.000	0.0
20100822 07:45	17.2	17.2	17.2	91	15.7	3	8	135	0.0	1019.7	151	0.000	0.0
20100822 07:50	17.5	17.5	17.5	90	15.8	5	10	135	0.0	1019.7	167	0.000	0.0
20100822 07:55	17.8	17.8	17.8	89	16.0	6	11	158	0.0	1019.5	179	0.000	0.3
20100822 08:00	18.1	18.1	18.1	87	15.9	5	10	158	0.0	1019.5	192	0.051	0.5
20100822 08:05	18.4	18.4	18.4	87	16.2	6	10	158	0.0	1019.6	206	0.000	0.6
20100822 08:10	18.8	18.8	18.8	86	16.4	5	10	158	0.0	1019.6	220	0.000	0.7
20100822 08:15	19.1	19.1	19.1	85	16.5	5	8	158	0.0	1019.6	234	0.000	0.7
20100822 08:20	19.4	19.4	19.4	84	16.7	3	8	158	0.0	1019.4	249	0.000	0.8
20100822 08:25	19.8	19.8	19.8	83	16.8	3	10	158	0.0	1019.4	266	0.000	0.9
20100822 08:30	20.1	20.1	20.1	82	16.9	3	10	158	0.0	1019.3	279	0.000	0.9
20100822 08:35	20.3	20.3	20.3	81	17.0	3	6	158	0.0	1019.2	291	0.000	1.0
20100822 08:40	20.6	20.6	20.6	80	17.0	3	8	158	0.0	1019.2	301	0.000	1.1
20100822 08:45	20.7	20.7	20.7	80	17.1	3	8	158	0.0	1019.1	316	0.000	1.2
20100822 08:50	20.8	20.8	20.8	79	17.1	3	10	158	0.0	1019.2	331	0.000	1.3
20100822 08:55	20.9	20.9	20.9	79	17.2	5	8	158	0.0	1019.2	344	0.000	1.4
20100822 09:00	21.2	21.2	21.2	79	17.4	3	8	158	0.0	1019.2	354	0.178	1.4
20100822 09:05	21.3	21.3	21.3	78	17.3	5	8	158	0.0	1019.3	369	0.000	1.5
20100822 09:10	21.4	21.4	21.4	77	17.2	3	10	158	0.0	1019.2	382	0.000	1.7
20100822 09:15	21.5	21.5	21.5	76	17.1	5	8	158	0.0	1019.2	395	0.000	1.8
20100822 09:20	21.6	21.6	21.6	77	17.3	5	8	158	0.0	1019.2	158	0.000	1.6
20100822 09:25	21.6	21.6	21.6	77	17.3	3	10	158	0.0	1019.1	60	0.000	1.6
20100822 09:30	21.7	21.7	21.7	77	17.5	3	8	158	0.0	1019.1	60	0.000	1.6
20100822 09:35	21.8	21.8	21.8	75	17.2	2	8	158	0.0	1019.0	60	0.000	1.7
20100822 09:40	22.0	22.0	22.0	75	17.4	3	10	158	0.0	1019.0	60	0.000	1.8
20100822 09:45	22.2	22.2	22.2	74	17.3	3	8	158	0.0	1019.0	60	0.000	1.9
20100822 09:50	22.3	22.3	22.3	74	17.5	3	6	158	0.0	1019.0	60	0.000	1.9
20100822 09:55	22.5	22.5	22.5	74	17.6	2	6	158	0.0	1018.9	60	0.000	2.0
20100822 10:00	22.7	22.7	22.7	73	17.6	2	6	158	0.0	1018.7	60	0.102	2.1
20100822 10:05	22.9	22.9	22.9	73	17.8	2	6	158	0.0	1018.9	60	0.000	2.2
20100822 10:10	23.2	23.2	23.2	72	17.8	2	6	158	0.0	1018.8	62	0.000	2.2
20100822 10:15	23.3	23.3	23.3	70	17.5	2	5	158	0.0	1018.8	61	0.000	1.9
20100822 10:20	23.6	23.6	23.6	70	17.8	3	8	158	0.0	1018.8	60	0.000	2.0
20100822 10:25	23.7	23.7	23.7	69	17.6	2	8	158	0.0	1018.6	63	0.000	2.5
20100822 10:30	23.8	23.8	23.8	68	17.6	2	6	158	0.0	1018.6	64	0.000	2.5
20100822 10:35	24.0	24.0	25.0	68	17.7	3	8	158	0.0	1018.6	70	0.000	2.6
20100822 10:40	24.2	24.2	25.2	67	17.6	3	6	158	0.0	1018.4	600	0.000	2.8
20100822 10:45	24.3	24.3	25.4	66	17.6	3	6	158	0.0	1018.4	607	0.000	4.2
20100822 10:50	24.5	24.5	25.5	65	17.5	3	6	158	0.0	1018.4	617	0.000	4.4
20100822 10:55	24.7	24.7	25.7	64	17.4	2	5	158	0.0	1018.3	628	0.000	4.6
20100822 11:00	24.9	24.9	25.9	64	17.6	0	3	158	0.0	1018.3	636	0.178	4.7
20100822 11:05	25.3	25.3	26.3	64	18.0	0	3	158	0.0	1018.3	648	0.000	4.9
20100822 11:10	25.7	25.7	26.6	62	17.8	2	6	158	0.0	1018.1	659	0.000	5.1
20100822 11:15	25.9	25.9	26.9	61	17.8	3	8	158	0.0	1018.0	668	0.000	5.2
20100822 11:20	26.1	26.1	27.0	61	17.9	3	8	180	0.0	1017.9	676	0.000	5.3
20100822 11:25	26.2	26.2	27.3	62	18.4	3	11	180	0.0	1017.9	679	0.000	5.4
20100822 11:30	26.2	26.2	27.2	61	18.1	3	10	135	0.0	1017.8	690	0.000	5.6
20100822 11:35	26.3	26.3	27.3	62	18.4	2	6	158	0.0	1017.7	691	0.000	5.7
20100822 11:40	26.4	26.4	27.4	60	18.0	2	6	158	0.0	1017.5	699	0.000	5.8
20100822 11:45	26.5	26.5	27.5	60	18.1	5	11	158	0.0	1017.4	710	0.000	5.9
20100822 11:50	26.6	26.6	27.6	60	18.2	5	14	158	0.0	1017.4	717	0.000	6.0
20100822 11:55	26.8	26.8	27.7	58	17.8	5	11	158	0.0	1017.3	723	0.000	6.2
20100822 12:00	26.8	26.8	27.7	59	18.1	5	10	180	0.0	1017.2	502	0.432	5.3
20100822 12:05	26.7	26.7	27.7	59	18.0	3	10	135	0.0	1017.2	624	0.000	6.2
20100822 12:10	26.9	26.9	27.9	60	18.5	2	8	135	0.0	1017.1	739	0.000	6.5
20100822 12:15	27.1	27.1	28.2	60	18.7	5	8	90	0.0	1017.0	742	0.000	6.6
20100822 12:20	27.2	27.2	28.1	58	18.2	3	8	112	0.0	1016.9	738	0.000	6.6
20100822 12:25	27.2	27.2	28.1	57	17.9	6	18	112	0.0	1016.9	751	0.000	6.7
20100822 12:30	27.3	27.3	28.1	55	17.5	3	18	90	0.0	1016.9	731	0.000	6.6
20100822 12:35	27.5	27.5	28.2	54	17.3	3	11	202	0.0	1016.7	769	0.000	7.0
20100822 12:40	27.7	27.7	28.3	53	17.2	3	11	202	0.0	1016.7	765	0.000	7.0
20100822 12:45	27.6	27.6	28.2	53	17.1	2	6	112	0.0	1016.6	764	0.000	7.0
20100822 12:50	27.8	27.8	28.6	54	17.6	5	13	135	0.0	1016.6	775	0.000	7.2
20100822 12:55	28.1	28.1	28.8	52	17.3	3	10	135	0.0	1016.4	780	0.000	7.2
20100822 13:00	28.3	28.3	28.9	51	17.2	3	11	158	0.0	1016.4	779	0.508	7.3
20100822 13:05	28.6	28.6	29.2	50	17.2	2	6	158	0.0	1016.3	784	0.000	7.3
20100822 13:10	28.7	28.7	29.1	49	16.9	3	10	158	0.0	1016.2	778	0.000	7.3
20100822 13:15	28.6	28.6	29.0	48	16.5	2	3	180	0.0	1016.1	780	0.000	7.3
20100822 13:20	28.7	28.7	29.2	50	17.2	3	8	180	0.0	1016.1	778	0.000	7.3
20100822 13:25	28.8	28.8	29.3	49	17.0	5	10	202	0.0	1016.1	775	0.000	7.2
20100822 13:30	28.9	28.9	29.4	48	16.8	5	10	180	0.0	1016.1	780	0.000	7.3
20100822 13:35	28.9	28.9	29.4	48	16.8	2	6	202	0.0	1016.0	785	0.000	7.3
20100822 13:40	29.0	29.0	29.5	49	17.2	2	6	180	0.0	1015.9	781	0.000	7.3
20100822 13:45	29.0	29.0	29.3	47	16.5	3	6	158	0.0	1015.9	780	0.000	7.2
20100822 13:50	29.0	29.0	29.7	50	17.5	3	6	158	0.0	1015.8	769	0.000	7.1
20100822 13:55	29.1	29.1	29.6	49	17.2	2	5	158	0.0	1015.7	765	0.000	7.0
20100822 14:00	29.2	29.2	29.5	47	16.7	2	6	158	0.0	1015.8	765	0.533	7.0
20100822 14:05	29.1	29.1	29.7	49	17.3	2	5	158	0.0	1015.6	758	0.000	6.9
20100822 14:10	29.2	29.2	29.8	49	17.3	3	6	158	0.0	1015.6	756	0.000	6.8
20100822 14:15	29.2	29.2	29.6	48	17.0	3	10	135	0.0	1015.5	751	0.000	6.7
20100822 14:20	29.0	29.0	29.5	49	17.2	5	8	112	0.0	1015.5	741	0.000	6.6
20100822 14:25	29.1	29.1	29.7	50	17.6	2	5	112	0.0	1015.4	740	0.000	6.6
20100822 14:30	29.2	29.2	30.1	51	18.0	0	6	112	0.0	1015.4	732	0.000	6.4
20100822 14:35	29.1	29.1	29.7	50	17.6	5	11	68	0.0	1015.4	726	0.000	6.3
20100822 14:40	28.9	28.9	29.5	50	17.4	3	11	45	0.0	1015.3	729	0.000	6.3
20100822 14:45	28.8	28.8	29.3	49	17.0	5	14	22	0.0	1015.3	720	0.000	6.2
20100822 14:50	28.8	28.8	29.4	50	17.4	5	8	45	0.0	1015.3	706	0.000	6.0
20100822 14:55	29.1	29.1	29.6	49	17.2	6	13	45	0.0	1015.2	700	0.000	5.8
20100822 15:00	28.9	28.9	29.5	49	17.1	3	14	45	0.0	1015.2	691	0.508	5.7
20100822 15:05	28.9	28.9	29.5	49	17.1	6	10	45	0.0	1015.2	688	0.000	5.7
20100822 15:10	29.1	29.1	29.7	49	17.3	3	6	90	0.0	1015.0	683	0.000	5.5
20100822 15:15	29.3	29.3	30.1	50	17.8	0	3	90	0.0	1014.8	679	0.000	5.4
20100822 15:20	29.6	29.6	30.1	48	17.4	2	8	0	0.0	1014.7	678	0.000	5.4
20100822 15:25	29.6	29.6	30.0	47	17.0	2	10	22	0.0	1014.7	671	0.000	5.3
20100822 15:30	29.3	29.3	29.7	47	16.8	3	11	45	0.0	1014.7	658	0.000	5.1
20100822 15:35	29.3	29.3	29.8	48	17.2	2	5	45	0.0	1014.7	652	0.000	4.9
20100822 15:40	29.4	29.4	30.0	48	17.3	2	6	45	0.0	1014.5	640	0.000	4.7
20100822 15:45	29.6	29.6	30.2	48	17.4	2	6	45	0.0	1014.6	623	0.000	4.5
20100822 15:50	29.7	29.7	30.2	47	17.2	2	5	45	0.0	1014.6	612	0.000	4.4
20100822 15:55	29.5	29.5	30.1	48	17.3	6	13	45	0.0	1014.4	601	0.000	4.2
20100822 16:00	29.4	29.4	30.2	50	17.9	5	11	45	0.0	1014.5	600	0.457	4.1
20100822 16:05	29.4	29.4	30.0	49	17.5	5	10	45	0.0	1014.5	596	0.000	4.0
20100822 16:10	29.5	29.5	29.9	47	17.0	2	10	22	0.0	1014.5	586	0.000	3.8
20100822 16:15	29.5	29.5	29.9	47	17.0	3	10	22	0.0	1014.5	570	0.000	3.7
20100822 16:20	29.4	29.4	29.9	48	17.2	5	10	22	0.0	1014.3	559	0.000	3.5
20100822 16:25	29.4	29.4	29.9	48	17.2	3	10	22	0.0	1014.2	553	0.000	3.4
20100822 16:30	29.7	29.7	30.1	47	17.1	2	5	0	0.0	1014.1	544	0.000	3.3
20100822 16:35	29.8	29.8	30.2	46	16.9	5	8	22	0.0	1013.9	525	0.000	3.1
20100822 16:40	29.8	29.8	30.4	48	17.6	3	5	22	0.0	1013.7	513	0.000	2.9
20100822 16:45	29.8	29.8	30.4	47	17.3	3	6	45	0.0	1013.7	498	0.000	2.8
20100822 16:50	29.7	29.7	30.4	48	17.5	3	8	68	0.0	1013.5	488	0.000	2.7
20100822 16:55	29.6	29.6	30.0	47	17.0	5	8	68	0.0	1013.6	476	0.000	2.5
20100822 17:00	29.4	29.4	30.0	48	17.3	5	11	90	0.0	1013.5	463	0.381	2.4
20100822 17:05	29.3	29.3	29.7	47	16.8	3	8	45	0.0	1013.5	449	0.000	2.2
20100822 17:10	29.3	29.3	29.7	47	16.8	3	10	112	0.0	1013.3	438	0.000	2.1
20100822 17:15	29.4	29.4	29.9	47	16.9	3	8	112	0.0	1013.3	425	0.000	2.0
20100822 17:20	29.4	29.4	30.0	48	17.3	3	8	112	0.0	1013.3	411	0.000	1.9
20100822 17:25	29.5	29.5	30.1	48	17.3	3	10	112	0.0	1013.3	392	0.000	1.7
20100822 17:30	29.7	29.7	30.3	48	17.5	3	11	112	0.0	1013.3	375	0.000	1.6
20100822 17:35	29.6	29.6	30.1	47	17.1	2	8	112	0.0	1013.2	366	0.000	1.5
20100822 17:40	29.6	29.6	30.0	47	17.0	5	10	112	0.0	1013.2	351	0.000	1.4
20100822 17:45	29.4	29.4	29.9	47	16.9	3	8	112	0.0	1013.3	334	0.000	1.3
20100822 17:50	29.3	29.3	29.7	47	16.8	3	8	90	0.0	1013.3	323	0.000	1.2
20100822 17:55	29.2	29.2	29.6	48	17.0	3	6	68	0.0	1013.2	308	0.000	1.1
20100822 18:00	29.1	29.1	29.4	47	16.6	5	8	68	0.0	1013.3	292	0.279	1.0
20100822 18:05	28.9	28.9	29.2	47	16.5	2	5	68	0.0	1013.2	284	0.000	1.0
20100822 18:10	28.9	28.9	29.4	48	16.8	2	6	68	0.0	1013.1	270	0.000	0.9
20100822 18:15	28.9	28.9	29.4	48	16.8	2	5	68	0.0	1012.9	257	0.000	0.8
20100822 18:20	28.9	28.9	29.4	48	16.8	3	6	68	0.0	1012.9	241	0.000	0.7
20100822 18:25	28.9	28.9	29.3	48	16.8	2	3	68	0.0	1012.8	227	0.000	0.7
20100822 18:30	28.8	28.8	29.2	48	16.7	3	6	68	0.0	1012.7	211	0.000	0.6
20100822 18:35	28.7	28.7	29.1	48	16.6	2	5	68	0.0	1012.7	197	0.000	0.6
20100822 18:40	28.7	28.7	29.0	48	16.6	2	5	68	0.0	1012.7	181	0.000	0.5
20100822 18:45	28.6	28.6	29.1	49	16.8	2	6	68	0.0	1012.7	168	0.000	0.3
20100822 18:50	28.4	28.4	29.0	50	17.0	0	3	90	0.0	1012.6	154	0.000	0.0
20100822 18:55	28.2	28.2	28.7	50	16.8	2	5	90	0.0	1012.7	86	0.000	0.0
20100822 19:00	28.1	28.1	28.6	51	17.0	2	3	90	0.0	1012.7	47	0.152	0.0
20100822 19:05	27.9	27.9	28.4	51	16.8	0	2	90	0.0	1012.5	43	0.000	0.0
20100822 19:10	27.8	27.8	28.5	53	17.3	0	3	90	0.0	1012.6	35	0.000	0.0
20100822 19:15	27.6	27.6	28.4	54	17.4	3	6	90	0.0	1012.5	34	0.000	0.0
20100822 19:20	27.4	27.4	28.2	54	17.3	0	3	90	0.0	1012.5	30	0.000	0.0
20100822 19:25	27.3	27.3	28.0	55	17.4	2	3	90	0.0	1012.4	31	0.000	0.0
20100822 19:30	27.1	27.1	27.9	56	17.6	2	5	90	0.0	1012.3	31	0.000	0.0
20100822 19:35	26.9	26.9	27.8	57	17.7	2	5	90	0.0	1012.3	29	0.000	0.0
20100822 19:40	26.7	26.7	27.6	58	17.8	2	5	90	0.0	1012.3	23	0.000	0.0
20100822 19:45	26.5	26.5	27.4	58	17.6	2	3	90	0.0	1012.3	20	0.000	0.0
20100822 19:50	26.3	26.3	27.2	60	17.9	0	3	90	0.0	1012.3	16	0.000	0.0
20100822 19:55	26.0	26.0	27.0	61	17.9	2	5	90	0.0	1012.3	11	0.000	0.0
20100822 20:00	25.8	25.8	26.8	61	17.7	0	3	90	0.0	1012.4	8	0.025	0.0
20100822 20:05	25.7	25.7	26.6	62	17.8	0	2	90	0.0	1012.1	6	0.000	0.0
20100822 20:10	25.4	25.4	26.4	63	17.9	2	3	90	0.0	1012.1	1	0.000	0.0
20100822 20:15	25.3	25.3	26.3	64	18.0	2	3	90	0.0	1012.1	0	0.000	0.0
20100822 20:20	25.1	25.1	26.1	65	18.0	0	3	90	0.0	1012.3	0	0.000	0.0
20100822 20:25	24.8	24.8	25.8	66	18.0	0	2	90	0.0	1012.2	0	0.000	0.0
20100822 20:30	24.7	24.7	25.7	66	17.9	0	3	90	0.0	1012.3	0	0.000	0.0
20100822 20:35	24.5	24.5	25.5	67	18.0	2	5	90	0.0	1012.2	0	0.000	0.0
20100822 20:40	24.3	24.3	25.3	68	18.0	2	6	90	0.0	1012.3	0	0.000	0.0
20100822 20:45	24.2	24.2	25.2	68	17.9	0	3	90	0.0	1012.3	0	0.000	0.0
20100822 20:50	24.0	24.0	25.0	69	18.0	0	2	90	0.0	1012.4	0	0.000	0.0
20100822 20:55	23.8	23.8	23.8	69	17.8	0	3	90	0.0	1012.4	0	0.000	0.0
20100822 21:00	23.7	23.7	23.7	70	17.9	0	2	90	0.0	1012.5	0	0.000	0.0
20100822 21:05	23.6	23.6	23.6	71	18.0	0	0	-100000	0.0	1012.3	0	0.000	0.0
20100822 21:10	23.5	23.5	23.5	71	17.9	0	2	90	0.0	1012.5	0	0.000	0.0
20100822 21:15	23.4	23.4	23.4	71	17.8	0	2	90	0.0	1012.6	0	0.000	0.0
20100822 21:20	23.3	23.3	23.3	72	17.9	0	0	-100000	0.0	1012.6	0	0.000	0.0
20100822 21:25	23.1	23.1	23.1	73	18.0	0	0	-100000	0.0	1012.5	0	0.000	0.0
20100822 21:30	22.9	22.9	22.9	74	18.1	0	0	-100000	0.0	1012.4	0	0.000	0.0
20100822 21:35	22.8	22.8	22.8	74	17.9	0	2	90	0.0	1012.4	0	0.000	0.0
20100822 21:40	22.7	22.7	22.7	74	17.8	0	2	90	0.0	1012.4	0	0.000	0.0
20100822 21:45	22.6	22.6	22.6	75	17.9	2	5	90	0.0	1012.4	0	0.000	0.0
20100822 21:50	22.4	22.4	22.4	75	17.8	0	3	90	0.0	1012.5	0	0.000	0.0
20100822 21:55	22.4	22.4	22.4	75	17.7	2	3	90	0.0	1012.4	0	0.000	0.0
20100822 22:00	22.3	22.3	22.3	75	17.7	0	5	90	0.0	1012.4	0	0.025	0.0
20100822 22:05	22.3	22.3	22.3	76	17.8	0	5	90	0.0	1012.3	0	0.000	0.0
20100822 22:10	22.2	22.2	22.2	76	17.7	0	3	90	0.0	1012.3	0	0.000	0.0
20100822 22:15	22.1	22.1	22.1	77	17.9	0	2	90	0.0	1012.4	0	0.000	0.0
20100822 22:20	22.0	22.0	22.0	77	17.8	0	2	90	0.0	1012.4	0	0.000	0.0
20100822 22:25	21.9	21.9	21.9	77	17.7	2	5	90	0.0	1012.5	0	0.000	0.0
20100822 22:30	21.8	21.8	21.8	77	17.6	3	6	90	0.0	1012.5	0	0.000	0.0
20100822 22:35	21.7	21.7	21.7	78	17.7	5	8	112	0.0	1012.5	0	0.000	0.0
20100822 22:40	21.6	21.6	21.6	78	17.6	2	5	112	0.0	1012.5	0	0.000	0.0
20100822 22:45	21.5	21.5	21.5	78	17.5	3	6	112	0.0	1012.5	0	0.000	0.0
20100822 22:50	21.4	21.4	21.4	78	17.4	2	5	112	0.0	1012.6	0	0.000	0.0
20100822 22:55	21.4	21.4	21.4	78	17.4	0	5	112	0.0	1012.7	0	0.000	0.0
20100822 23:00	21.3	21.3	21.3	78	17.3	2	5	112	0.0	1012.6	0	0.025	0.0
20100822 23:05	21.3	21.3	21.3	78	17.3	0	3	112	0.0	1012.4	0	0.000	0.0
20100822 23:10	21.2	21.2	21.2	79	17.4	0	3	112	0.0	1012.4	0	0.000	0.0
20100822 23:15	21.2	21.2	21.2	79	17.4	2	5	112	0.0	1012.3	0	0.000	0.0
20100822 23:20	21.2	21.2	21.2	79	17.4	0	3	112	0.0	1012.4	0	0.000	0.0
20100822 23:25	21.1	21.1	21.1	79	17.3	0	3	112	0.0	1012.4	0	0.000	0.0
20100822 23:30	21.1	21.1	21.1	79	17.3	2	5	112	0.0	1012.4	0	0.000	0.0
20100822 23:35	21.1	21.1	21.1	79	17.3	3	6	112	0.0	1012.4	0	0.000	0.0
20100822 23:40	21.1	21.1	21.1	80	17.5	3	6	112	0.0	1012.3	0	0.000	0.0
20100822 23:45	20.9	20.9	20.9	80	17.4	2	6	112	0.0	1012.3	0	0.000	0.0
20100822 23:50	20.9	20.9	20.9	80	17.3	2	6	112	0.0	1012.3	0	0.000	0.0
20100822 23:55	20.8	20.8	20.8	81	17.4	2	5	112	0.0	1012.2	0	0.000	0.0
--------------------------------------------------------------------------------------------------------------------
Please note the license to use and transfer of this data:
http://creativecommons.org/licenses/by-nc-sa/3.0/deed.en

Bitte beachten sie die Lizenz zur Verwertung und Weitergabe der Daten:
http://creativecommons.org/licenses/by-nc-sa/3.0/deed.de



Please note the license to use and transfer of this data:
http://creativecommons.org/licenses/by-nc-sa/3.0/deed.en

Bitte beachten sie die Lizenz zur Verwertung und Weitergabe der Daten:
http://creativecommons.org/licenses/by-nc-sa/3.0/deed.de

zurück zur Übersicht der Archivdaten (Monats und Tagesdaten)

Cookies helfen bei der Bereitstellung von Inhalten. Durch die Nutzung dieser Seiten erklärst du dich damit einverstanden, dass Cookies auf deinem Rechner gespeichert werden. Weitere Information